When you browse on this site, cookies collect data to enhance your experience and personalize the content and advertising you see.
Visit our Privacy Policy to learn more. By continuing to use the site, you agree to this use of cookies and data.
  • In Latvia
  • List of Countries
  • For 7 days
  • Water Temperature
  • Weather Map
  • Weather Widgets
  • user-avatar
    Login

    Hourly Weather Aberdeen

    Today, 18 September, Wednesday

    Time Temperature Precipitation Wind Pressure Humidity
    00:00 +8°C° 0 mm 0 mps 763 mmHg 82%
    01:00 +8°C° 0 mm 0 mps 763 mmHg 81%
    02:00 +9°C° 0 mm 0 mps 762 mmHg 81%
    03:00 +9°C° 0 mm 0 mps 762 mmHg 80%
    04:00 +9°C° 0 mm 0 mps 762 mmHg 80%
    05:00 +9°C° 0 mm 0 mps 762 mmHg 81%
    06:00 +10°C° 0 mm 1 mps 763 mmHg 80%
    07:00 +10°C° 0 mm 1 mps 763 mmHg 77%
    08:00 +11°C° 0 mm 1 mps 763 mmHg 74%
    09:00 +12°C° 0 mm 1 mps 763 mmHg 71%
    10:00 +13°C° 0 mm 1 mps 763 mmHg 69%
    11:00 +14°C° 0 mm 2 mps 763 mmHg 68%
    12:00 +16°C° 0 mm 2 mps 763 mmHg 65%
    13:00 +16°C° 0 mm 2 mps 763 mmHg 66%
    14:00 +17°C° 0 mm 3 mps 763 mmHg 67%
    15:00 +18°C° 0 mm 3 mps 763 mmHg 69%
    16:00 +17°C° 0 mm 3 mps 763 mmHg 74%
    17:00 +16°C° 0 mm 2 mps 763 mmHg 78%
    18:00 +15°C° 0 mm 2 mps 763 mmHg 83%
    19:00 +14°C° 0 mm 2 mps 763 mmHg 86%
    20:00 +12°C° 0 mm 2 mps 763 mmHg 89%
    21:00 +11°C° 0 mm 1 mps 764 mmHg 92%
    22:00 +11°C° 0 mm 1 mps 764 mmHg 91%
    23:00 +11°C° 0 mm 1 mps 764 mmHg 91%

    Tomorrow, 19 September, Thursday

    Time Temperature Precipitation Wind Pressure Humidity
    00:00 +11°C° 0 mm 1 mps 764 mmHg 91%
    01:00 +11°C° 0 mm 1 mps 764 mmHg 92%
    02:00 +10°C° 0 mm 2 mps 764 mmHg 92%
    03:00 +10°C° 0 mm 2 mps 764 mmHg 93%
    04:00 +9°C° 0 mm 2 mps 764 mmHg 93%
    05:00 +9°C° 0 mm 2 mps 764 mmHg 93%
    06:00 +9°C° 0 mm 2 mps 764 mmHg 93%
    07:00 +12°C° 0 mm 2 mps 764 mmHg 89%
    08:00 +13°C° 0 mm 2 mps 764 mmHg 85%
    09:00 +15°C° 0 mm 1 mps 764 mmHg 81%
    10:00 +16°C° 0 mm 1 mps 764 mmHg 77%
    11:00 +17°C° 0 mm 2 mps 764 mmHg 74%
    12:00 +18°C° 0 mm 2 mps 764 mmHg 70%
    13:00 +18°C° 0 mm 2 mps 764 mmHg 70%
    14:00 +19°C° 0 mm 2 mps 764 mmHg 70%
    15:00 +19°C° 0 mm 2 mps 764 mmHg 70%
    16:00 +18°C° 0 mm 2 mps 763 mmHg 76%
    17:00 +17°C° 0 mm 2 mps 763 mmHg 83%
    18:00 +16°C° 0 mm 2 mps 763 mmHg 89%
    19:00 +15°C° 0 mm 2 mps 763 mmHg 90%
    20:00 +14°C° 0 mm 2 mps 763 mmHg 91%
    21:00 +13°C° 0 mm 2 mps 763 mmHg 93%
    22:00 +13°C° 0 mm 2 mps 763 mmHg 93%
    23:00 +13°C° 0 mm 2 mps 763 mmHg 92%

    Day after tomorrow, 20 September, Friday

    Time Temperature Precipitation Wind Pressure Humidity
    00:00 +12°C° 0 mm 2 mps 763 mmHg 92%
    01:00 +12°C° 0 mm 2 mps 762 mmHg 92%
    02:00 +12°C° 0 mm 2 mps 762 mmHg 91%
    03:00 +10°C° 0 mm 2 mps 761 mmHg 90%
    04:00 +10°C° 0 mm 2 mps 761 mmHg 90%
    05:00 +10°C° 0 mm 2 mps 761 mmHg 90%
    06:00 +10°C° 0 mm 2 mps 760 mmHg 90%
    07:00 +12°C° 0 mm 2 mps 760 mmHg 86%
    08:00 +14°C° 0 mm 2 mps 760 mmHg 81%
    09:00 +16°C° 0 mm 2 mps 760 mmHg 77%
    10:00 +17°C° 0 mm 2 mps 760 mmHg 73%
    11:00 +18°C° 0 mm 2 mps 760 mmHg 70%
    12:00 +20°C° 0 mm 2 mps 759 mmHg 66%
    13:00 +20°C° 0 mm 2 mps 759 mmHg 67%
    14:00 +20°C° 0 mm 3 mps 758 mmHg 68%
    15:00 +20°C° 0 mm 3 mps 758 mmHg 69%
    16:00 +18°C° 0 mm 2 mps 757 mmHg 76%
    17:00 +17°C° 0 mm 2 mps 757 mmHg 83%
    18:00 +15°C° 0 mm 2 mps 756 mmHg 90%
    19:00 +15°C° 0 mm 2 mps 756 mmHg 91%
    20:00 +14°C° 0 mm 2 mps 756 mmHg 92%
    21:00 +13°C° 0 mm 2 mps 756 mmHg 92%
    22:00 +13°C° 0 mm 2 mps 756 mmHg 92%
    23:00 +13°C° 0 mm 2 mps 755 mmHg 92%

    21 September, Saturday

    Time Temperature Precipitation Wind Pressure Humidity
    00:00 +13°C° 0 mm 2 mps 755 mmHg 92%
    01:00 +12°C° 0 mm 2 mps 755 mmHg 92%
    02:00 +11°C° 0 mm 3 mps 754 mmHg 93%
    03:00 +11°C° 0 mm 3 mps 754 mmHg 93%
    04:00 +10°C° 0 mm 3 mps 753 mmHg 93%
    05:00 +10°C° 0 mm 3 mps 753 mmHg 93%
    06:00 +10°C° 0 mm 3 mps 752 mmHg 94%
    07:00 +11°C° 0 mm 4 mps 752 mmHg 91%
    08:00 +12°C° 0 mm 4 mps 752 mmHg 89%
    09:00 +13°C° 0 mm 4 mps 752 mmHg 86%
    10:00 +14°C° 0 mm 5 mps 751 mmHg 83%
    11:00 +15°C° 0 mm 5 mps 751 mmHg 80%
    12:00 +15°C° 0 mm 6 mps 750 mmHg 77%
    13:00 +15°C° 0 mm 6 mps 749 mmHg 78%
    14:00 +15°C° 0 mm 6 mps 749 mmHg 79%
    15:00 +15°C° 0 mm 6 mps 748 mmHg 80%
    16:00 +14°C° 0 mm 6 mps 748 mmHg 83%
    17:00 +13°C° 0 mm 5 mps 747 mmHg 87%
    18:00 +12°C° 0 mm 5 mps 747 mmHg 90%
    19:00 +11°C° 0 mm 4 mps 747 mmHg 91%
    20:00 +11°C° 0 mm 4 mps 747 mmHg 93%
    21:00 +11°C° 0 mm 4 mps 747 mmHg 94%
    22:00 +11°C° 0 mm 3 mps 746 mmHg 95%
    23:00 +10°C° 0 mm 3 mps 746 mmHg 95%

    22 September, Sunday

    Time Temperature Precipitation Wind Pressure Humidity
    00:00 +10°C° 0 mm 3 mps 746 mmHg 96%
    01:00 +11°C° 0 mm 3 mps 745 mmHg 96%
    02:00 +11°C° 0 mm 3 mps 745 mmHg 96%
    03:00 +11°C° 0 mm 3 mps 744 mmHg 96%
    04:00 +11°C° 0 mm 3 mps 744 mmHg 95%
    05:00 +11°C° 0 mm 3 mps 744 mmHg 95%
    06:00 +11°C° 0 mm 3 mps 743 mmHg 95%
    07:00 +12°C° 0.3 mm 3 mps 743 mmHg 95%
    08:00 +13°C° 0.3 mm 3 mps 743 mmHg 95%
    09:00 +13°C° 0.3 mm 3 mps 743 mmHg 94%
    10:00 +14°C° 0.2 mm 3 mps 743 mmHg 94%
    11:00 +14°C° 0.2 mm 3 mps 743 mmHg 94%
    12:00 +16°C° 0.2 mm 3 mps 743 mmHg 94%
    13:00 +16°C° 0.8 mm 2 mps 743 mmHg 95%
    14:00 +15°C° 0.8 mm 2 mps 742 mmHg 96%
    15:00 +15°C° 0.8 mm 1 mps 742 mmHg 98%
    16:00 +15°C° 0.9 mm 1 mps 742 mmHg 97%
    17:00 +14°C° 0.9 mm 1 mps 742 mmHg 96%
    18:00 +14°C° 0.9 mm 1 mps 742 mmHg 96%
    19:00 +14°C° 0 mm 1 mps 742 mmHg 96%
    20:00 +13°C° 0 mm 1 mps 742 mmHg 96%
    21:00 +13°C° 0 mm 1 mps 743 mmHg 97%
    22:00 +12°C° 0 mm 2 mps 743 mmHg 96%
    23:00 +12°C° 0 mm 2 mps 743 mmHg 96%

    23 September, Monday

    Time Temperature Precipitation Wind Pressure Humidity
    00:00 +12°C° 0 mm 2 mps 744 mmHg 95%
    01:00 +10°C° 0 mm 2 mps 744 mmHg 95%
    02:00 +10°C° 0 mm 2 mps 744 mmHg 95%
    03:00 +9°C° 0 mm 2 mps 744 mmHg 96%
    04:00 +9°C° 0 mm 2 mps 744 mmHg 96%
    05:00 +9°C° 0 mm 3 mps 744 mmHg 96%
    06:00 +9°C° 0 mm 3 mps 745 mmHg 96%
    07:00 +10°C° 0 mm 3 mps 745 mmHg 93%
    08:00 +11°C° 0 mm 3 mps 745 mmHg 89%
    09:00 +12°C° 0 mm 3 mps 745 mmHg 85%
    10:00 +13°C° 0 mm 3 mps 745 mmHg 80%
    11:00 +14°C° 0 mm 3 mps 745 mmHg 74%
    12:00 +16°C° 0 mm 3 mps 745 mmHg 68%
    13:00 +16°C° 0 mm 3 mps 744 mmHg 70%
    14:00 +15°C° 0 mm 4 mps 744 mmHg 72%
    15:00 +15°C° 0 mm 4 mps 743 mmHg 74%
    16:00 +14°C° 0.4 mm 4 mps 743 mmHg 81%
    17:00 +13°C° 0.4 mm 3 mps 742 mmHg 89%
    18:00 +12°C° 0.4 mm 3 mps 742 mmHg 96%
    19:00 +12°C° 0.1 mm 3 mps 742 mmHg 96%
    20:00 +12°C° 0.1 mm 3 mps 742 mmHg 97%
    21:00 +13°C° 0.1 mm 2 mps 742 mmHg 97%
    22:00 +13°C° 0.1 mm 2 mps 742 mmHg 97%
    23:00 +13°C° 0.1 mm 1 mps 742 mmHg 97%
    Show more